Regional Weather Roundup
Issued by NWS

Home | Current Version | Previous Version | Text Only | Print | Product List | Glossary Off
Versions: 1 2 3 4 5 6 7 8 9 10 11 12 13 14 15 16 17 18 19 20 21 22 23 24 25 26 27 28 29 30 31 32 33 34 35 36 37 38 39 40 41 42 43 44 45 46 47 48 49

000
ASUS45 KBOU 031807
RWRCO

WEATHER ROUNDUP FOR COLORADO
NATIONAL WEATHER SERVICE DENVER/BOULDER CO
1200 PM MDT TUE MAY 03 2016

NOTE: "FAIR" INDICATES FEW OR NO CLOUDS BELOW 12000 FEET WITH NO
SIGNIFICANT WEATHER AND/OR OBSTRUCTIONS TO VISIBILITY.

COZ001>005-013-030-031-031900-
...NORTHWEST COLORADO...

CITY           SKY/WX    TMP DP  RH WIND       PRES   REMARKS
CRAIG          FAIR      58  25  28 CALM      30.29F
HAYDEN         FAIR      55  25  30 E6        30.29S
MEEKER         FAIR      61  27  27 VRB3      30.27F
MOUNT WERNER   NOT AVBL
STEAMBOAT SPGS FAIR      54  27  34 S7        30.29F
WALDEN         FAIR      50  23  34 NW8       30.35S
$$

COZ006>008-011-031900-
...WEST CENTRAL VALLEYS...

CITY           SKY/WX    TMP DP  RH WIND       PRES   REMARKS
GRAND JUNCTION FAIR      63  31  30 VRB7      30.22F
MONTROSE       FAIR      60  29  30 CALM      30.26F
EAGLE          SUNNY     55  21  26 CALM      30.30F
RIFLE          FAIR      62  21  20 CALM      30.24F
DELTA          NOT AVBL
NUCLA          NOT AVBL
$$

COZ017>023-064>068-031900-
...SOUTHWEST COLORADO...

CITY           SKY/WX    TMP DP  RH WIND       PRES   REMARKS
DURANGO        FAIR      57  31  37 NW5       30.24F
CORTEZ         FAIR      62  37  39 S14       30.22S
PAGOSA SPRINGS FAIR      56  22  26 CALM      30.27S
TELLURIDE      NOT AVBL
WOLF CREEK PAS FAIR      34  10  37 NE13G23   30.44S WCI  25
$$

COZ009-010-012-014-032>034-037-058>063-031900-
...CENTRAL COLORADO...

CITY           SKY/WX    TMP DP  RH WIND       PRES   REMARKS
ASPEN          FAIR      55  19  24 N10G17    30.28F
BUENA VISTA    FAIR      54  12  19 CALM      30.28S
COPPER MTN     NOT AVBL
BERTHOUD PASS  FAIR      28  19  69 CALM      30.45R
COTTONWOOD PAS FAIR      52   9  17 NE3       30.35S
GUNNISON       FAIR      54  21  28 W3        30.30F
KREMMLING      FAIR      54  18  24 NE3       30.32S
LEADVILLE      FAIR      44   6  21 N8G20     30.34S
MONARCH PASS   FAIR      34  19  55 MISG      30.52R
SALIDA         FAIR      58  15  18 E10       30.35S
SUNLIGHT       FAIR      41  21  45 CALM      30.45S
WILKERSON PASS FAIR      37  19  48 CALM      30.43R
$$

COZ069>075-031900-
...SAN LUIS VALLEY/SANGRE DE CRISTO MOUNTAINS...

CITY           SKY/WX    TMP DP  RH WIND       PRES   REMARKS
ALAMOSA        FAIR      55  24  30 N9G16     30.27S
LA VETA PASS   FAIR      43  23  45 NW6       30.36S
SAGUACHE       FAIR      55  19  24 NE3       30.28S
$$

COZ035-036-038>040-031900-
...NORTHERN COLORADO FRONT RANGE...

CITY           SKY/WX    TMP DP  RH WIND       PRES   REMARKS
DENVER INTL AP PTSUNNY   62  32  32 N15G25    30.23S
DMNS CITY PARK   N/A     60  29  30 NE7G24    30.24F
AURORA         FAIR      59  31  34 N20G25    30.25S
FRONT RANGE AP PTSUNNY   57  30  35 N21G31    30.24S
ERIE MUNI ARPT FAIR      62  29  28 N10G20    30.23S
BOULDER MUN AP FAIR      61  30  31 CALM      30.23F
CENTENNIAL     PTSUNNY   56  30  37 N16G22    30.26R
BROOMFIELD     MOSUNNY   59  30  33 NW10G21   30.26R
FORT COLLINS   FAIR      63  36  36 N16       30.24S
LONGMONT       FAIR      65  31  28 N7        30.24S
$$

COZ041-046-047-076>085-087-088-031900-
...PIKES PEAK/PALMER DIVIDE AND SOUTHERN FOOTHILLS...

CITY           SKY/WX    TMP DP  RH WIND       PRES   REMARKS
COLO. SPRINGS  FAIR      59  25  27 N20G32    30.26S
A. F. ACADEMY  FAIR      55  27  33 N21G33    30.26S
SCHRIEVER AFB  NOT AVBL
ELLICOTT       NOT AVBL
FALCON         FAIR      54  25  33 MISG      30.27S
FORT CARSON    FAIR      60  23  24 N24G30    30.23R
LIMON          FAIR      58  38  47 N30G36    30.21R
MONUMENT HILL  FAIR      50  30  46 N20G25    30.30S
TRINIDAD       FAIR      61  33  35 N13G24    30.24S
$$

COZ042>045-048>051-090-091-031900-
...NORTHEAST COLORADO...

CITY           SKY/WX    TMP DP  RH WIND       PRES   REMARKS
GREELEY ARPT   PTSUNNY   63  34  34 N16G24    30.21F
AKRON          FAIR      60  33  36 N21       30.17F
BURLINGTON     FAIR      60  35  39 N18G28    30.15S
WRAY           NOT AVBL
STERLING       FAIR      64  34  32 N14G22    30.15F
HOLYOKE        NOT AVBL
FORT MORGAN    FAIR      65  33  31 N20G31    30.19S
$$

COZ086-089-092>099-031900-
...SOUTHEAST COLORADO...

CITY           SKY/WX    TMP DP  RH WIND       PRES   REMARKS
PUEBLO         FAIR      67  24  19 N21G31    30.20S
LA JUNTA       FAIR      66  33  29 N26G33    30.18R
LAMAR          FAIR      66  34  30 N18G26    30.13R
SPRINGFIELD      N/A     63  32  31 N28G43    30.13F
$$



USA.gov is the U.S. government's official web portal to all federal, state and local government web resources and services.